• In Czech Republic
  • List of Countries
  • For 7 days
  • Water Temperature
  • Satellite Maps
  • Weather Map
  • Weather Widgets
  • user-avatar
    Login

    Hourly Weather Kislino

    Today, 26 September, Wednesday

    Time Temperature Precipitation Wind Pressure Humidity
    00:00 +5°C° 0 mm 4 mps 746 mmHg 82%
    01:00 +4°C° 0 mm 4 mps 746 mmHg 85%
    02:00 +4°C° 0 mm 4 mps 746 mmHg 88%
    03:00 +3°C° 0 mm 4 mps 747 mmHg 89%
    04:00 +3°C° 0 mm 4 mps 748 mmHg 90%
    05:00 +1°C° 0 mm 4 mps 748 mmHg 90%
    06:00 +3°C° 0 mm 4 mps 749 mmHg 87%
    07:00 +4°C° 0 mm 4 mps 749 mmHg 83%
    08:00 +4°C° 0 mm 4 mps 750 mmHg 79%
    09:00 +6°C° 0 mm 4 mps 750 mmHg 72%
    10:00 +7°C° 0 mm 4 mps 750 mmHg 66%
    11:00 +8°C° 0 mm 4 mps 751 mmHg 59%
    12:00 +10°C° 0 mm 4 mps 750 mmHg 56%
    13:00 +10°C° 0 mm 4 mps 750 mmHg 54%
    14:00 +10°C° 0 mm 4 mps 750 mmHg 51%
    15:00 +10°C° 0 mm 4 mps 750 mmHg 55%
    16:00 +9°C° 0 mm 3 mps 750 mmHg 59%
    17:00 +8°C° 0 mm 3 mps 750 mmHg 62%
    18:00 +7°C° 0 mm 3 mps 750 mmHg 64%
    19:00 +6°C° 0 mm 4 mps 750 mmHg 66%
    20:00 +5°C° 0 mm 5 mps 750 mmHg 67%
    21:00 +6°C° 0 mm 5 mps 749 mmHg 67%
    22:00 +5°C° 0 mm 6 mps 749 mmHg 67%
    23:00 +5°C° 0 mm 6 mps 748 mmHg 66%

    Tomorrow, 27 September, Thursday

    Time Temperature Precipitation Wind Pressure Humidity
    00:00 +5°C° 0 mm 7 mps 747 mmHg 64%
    01:00 +5°C° 0 mm 8 mps 746 mmHg 62%
    02:00 +5°C° 0 mm 8 mps 746 mmHg 59%
    03:00 +5°C° 0.4 mm 9 mps 744 mmHg 63%
    04:00 +5°C° 0.4 mm 9 mps 743 mmHg 66%
    05:00 +3°C° 0.4 mm 10 mps 742 mmHg 70%
    06:00 +5°C° 0.2 mm 10 mps 742 mmHg 73%
    07:00 +4°C° 0.2 mm 11 mps 741 mmHg 76%
    08:00 +4°C° 0.2 mm 11 mps 741 mmHg 79%
    09:00 +4°C° 0.3 mm 11 mps 740 mmHg 81%
    10:00 +6°C° 0.3 mm 10 mps 740 mmHg 82%
    11:00 +6°C° 0.3 mm 10 mps 740 mmHg 84%
    12:00 +7°C° 0.1 mm 9 mps 740 mmHg 84%
    13:00 +7°C° 0.1 mm 9 mps 740 mmHg 84%
    14:00 +9°C° 0.1 mm 8 mps 740 mmHg 83%
    15:00 +9°C° 0.1 mm 8 mps 740 mmHg 84%
    16:00 +9°C° 0.1 mm 7 mps 741 mmHg 85%
    17:00 +9°C° 0.1 mm 6 mps 741 mmHg 85%
    18:00 +9°C° 0.1 mm 6 mps 741 mmHg 87%
    19:00 +8°C° 0.1 mm 5 mps 742 mmHg 89%
    20:00 +8°C° 0.1 mm 5 mps 742 mmHg 90%
    21:00 +8°C° 0 mm 5 mps 742 mmHg 91%
    22:00 +8°C° 0 mm 5 mps 742 mmHg 91%
    23:00 +7°C° 0 mm 5 mps 742 mmHg 92%

    Day after tomorrow, 28 September, Friday

    Time Temperature Precipitation Wind Pressure Humidity
    00:00 +7°C° 0 mm 5 mps 742 mmHg 92%
    01:00 +7°C° 0 mm 5 mps 742 mmHg 93%
    02:00 +6°C° 0 mm 5 mps 742 mmHg 94%
    03:00 +7°C° 0 mm 6 mps 741 mmHg 94%
    04:00 +7°C° 0 mm 6 mps 741 mmHg 93%
    05:00 +6°C° 0 mm 7 mps 741 mmHg 93%
    06:00 +7°C° 0 mm 8 mps 740 mmHg 90%
    07:00 +9°C° 0 mm 8 mps 740 mmHg 88%
    08:00 +10°C° 0 mm 9 mps 740 mmHg 85%
    09:00 +10°C° 0.1 mm 9 mps 739 mmHg 85%
    10:00 +11°C° 0.1 mm 9 mps 739 mmHg 85%
    11:00 +11°C° 0.1 mm 9 mps 739 mmHg 85%
    12:00 +11°C° 0.1 mm 9 mps 738 mmHg 85%
    13:00 +12°C° 0.1 mm 9 mps 738 mmHg 85%
    14:00 +12°C° 0.1 mm 8 mps 737 mmHg 84%
    15:00 +12°C° 0.5 mm 8 mps 738 mmHg 85%
    16:00 +13°C° 0.5 mm 8 mps 738 mmHg 87%
    17:00 +14°C° 0.5 mm 7 mps 738 mmHg 88%
    18:00 +13°C° 0.2 mm 6 mps 739 mmHg 87%
    19:00 +10°C° 0.2 mm 5 mps 740 mmHg 86%
    20:00 +10°C° 0.2 mm 4 mps 740 mmHg 85%
    21:00 +9°C° 0 mm 3 mps 741 mmHg 86%
    22:00 +8°C° 0 mm 3 mps 742 mmHg 88%
    23:00 +7°C° 0 mm 2 mps 742 mmHg 89%

    29 September, Saturday

    Time Temperature Precipitation Wind Pressure Humidity
    00:00 +6°C° 0 mm 2 mps 743 mmHg 89%
    01:00 +6°C° 0 mm 2 mps 743 mmHg 88%
    02:00 +6°C° 0 mm 1 mps 744 mmHg 88%
    03:00 +6°C° 0 mm 1 mps 744 mmHg 88%
    04:00 +6°C° 0 mm 1 mps 744 mmHg 87%
    05:00 +6°C° 0 mm 1 mps 745 mmHg 87%
    06:00 +7°C° 0 mm 1 mps 745 mmHg 82%
    07:00 +8°C° 0 mm 1 mps 745 mmHg 77%
    08:00 +9°C° 0 mm 1 mps 746 mmHg 72%
    09:00 +10°C° 0 mm 1 mps 746 mmHg 66%
    10:00 +11°C° 0 mm 1 mps 746 mmHg 61%
    11:00 +12°C° 0 mm 1 mps 746 mmHg 55%
    12:00 +12°C° 0 mm 1 mps 746 mmHg 53%
    13:00 +13°C° 0 mm 1 mps 746 mmHg 52%
    14:00 +13°C° 0 mm 1 mps 746 mmHg 50%
    15:00 +12°C° 0 mm 1 mps 746 mmHg 54%
    16:00 +12°C° 0 mm 1 mps 747 mmHg 59%
    17:00 +11°C° 0 mm 1 mps 747 mmHg 63%
    18:00 +10°C° 0 mm 1 mps 747 mmHg 65%
    19:00 +10°C° 0 mm 1 mps 748 mmHg 68%
    20:00 +8°C° 0 mm 2 mps 748 mmHg 70%
    21:00 +8°C° 0 mm 2 mps 748 mmHg 74%
    22:00 +7°C° 0 mm 2 mps 748 mmHg 77%
    23:00 +7°C° 0 mm 2 mps 749 mmHg 80%

    30 September, Sunday

    Time Temperature Precipitation Wind Pressure Humidity
    00:00 +6°C° 0 mm 2 mps 749 mmHg 82%
    01:00 +6°C° 0 mm 2 mps 749 mmHg 84%
    02:00 +6°C° 0 mm 2 mps 749 mmHg 86%
    03:00 +6°C° 0 mm 1 mps 750 mmHg 87%
    04:00 +6°C° 0 mm 1 mps 750 mmHg 88%
    05:00 +6°C° 0 mm 1 mps 750 mmHg 88%
    06:00 +7°C° 0 mm 1 mps 750 mmHg 84%
    07:00 +8°C° 0 mm 1 mps 751 mmHg 79%
    08:00 +9°C° 0 mm 1 mps 751 mmHg 74%
    09:00 +10°C° 0 mm 1 mps 751 mmHg 69%
    10:00 +11°C° 0 mm 1 mps 751 mmHg 64%
    11:00 +12°C° 0 mm 1 mps 751 mmHg 60%
    12:00 +13°C° 0.1 mm 1 mps 751 mmHg 58%
    13:00 +13°C° 0.1 mm 1 mps 750 mmHg 55%
    14:00 +13°C° 0.1 mm 2 mps 750 mmHg 53%
    15:00 +12°C° 0 mm 1 mps 750 mmHg 57%
    16:00 +12°C° 0 mm 1 mps 750 mmHg 61%
    17:00 +11°C° 0 mm 1 mps 750 mmHg 66%
    18:00 +10°C° 0 mm 1 mps 750 mmHg 68%
    19:00 +9°C° 0 mm 1 mps 750 mmHg 70%
    20:00 +9°C° 0 mm 1 mps 750 mmHg 72%
    21:00 +8°C° 0 mm 1 mps 750 mmHg 73%
    22:00 +8°C° 0 mm 1 mps 750 mmHg 74%
    23:00 +7°C° 0 mm 1 mps 750 mmHg 75%

    1 October, Monday

    Time Temperature Precipitation Wind Pressure Humidity
    00:00 +7°C° 0 mm 1 mps 750 mmHg 76%
    01:00 +7°C° 0 mm 1 mps 750 mmHg 77%
    02:00 +6°C° 0 mm 1 mps 750 mmHg 77%
    03:00 +6°C° 0 mm 1 mps 750 mmHg 78%
    04:00 +6°C° 0 mm 1 mps 749 mmHg 78%
    05:00 +6°C° 0 mm 1 mps 749 mmHg 78%
    06:00 +7°C° 0 mm 1 mps 749 mmHg 74%
    07:00 +8°C° 0 mm 1 mps 749 mmHg 70%
    08:00 +9°C° 0 mm 1 mps 749 mmHg 67%
    09:00 +9°C° 0 mm 2 mps 749 mmHg 62%
    10:00 +12°C° 0 mm 2 mps 749 mmHg 57%
    11:00 +12°C° 0 mm 3 mps 749 mmHg 52%
    12:00 +12°C° 0 mm 3 mps 749 mmHg 50%
    13:00 +13°C° 0 mm 3 mps 748 mmHg 49%
    14:00 +13°C° 0 mm 3 mps 748 mmHg 48%
    15:00 +13°C° 0 mm 2 mps 748 mmHg 52%
    16:00 +12°C° 0 mm 2 mps 747 mmHg 57%
    17:00 +11°C° 0 mm 1 mps 747 mmHg 61%
    18:00 +10°C° 0 mm 1 mps 747 mmHg 63%
    19:00 +10°C° 0 mm 1 mps 747 mmHg 64%
    20:00 +9°C° 0 mm 1 mps 748 mmHg 65%
    21:00 +9°C° 0 mm 1 mps 748 mmHg 66%
    22:00 +9°C° 0 mm 1 mps 747 mmHg 67%
    23:00 +7°C° 0 mm 2 mps 747 mmHg 68%
    Show more